Theta_e
304 305 305 306 305 305 304 304 305 306 305 304 302 301 301 303 303 303 303 304 304 302
304 305 306 306 305 304 304 305 306 305 304 303 302 300 300 301 303 303 302 303 303 302
304 305 306 305 306 305 304 305 305 306 305 303 301 300 300 301 302 303 303 304 303 303
304 305 306 306 306 305 305 305 305 306 305 303 300 299 299 301 304 303 303 303 303 304
304 305 306 306 306 306 305 305 306 306 305 303 300 299 299 300 302 303 303 302 302 303
304 305 305 306 305 305 305 306 306 305 305 303 301 299 299 300 302 304 304 301 302 302
304 305 305 305 305 304 305 306 306 306 306 305 303 300 301 301 302 304 303 301 301 302
305 305 305 305 305 306 306 306 306 306 307 306 305 301 303 302 302 304 303 302 300 301
305 305 305 305 305 305 306 306 305 306 305 305 305 303 303 305 302 302 302 303 301 300
305 305 306 306 305 305 306 306 305 305 305 306 307 301 301 303 301 300 303 303 302 300
306 306 306 305 306 307 307 306 305 305 305 304 304 302 300 300 300 299 303 305 302 301
307 307 308 306 305 308 307 306 305 305 304 303 303 300 299 300 299 299 300 302 303 303
308 309 307 306 307 308 308 306 306 306 304 302 302 298 298 299 298 298 298 299 301 301
309 308 307 306 308 307 306 305 305 301 301 301 301 299 297 296 297 297 297 297 298 300
Wind_Speed
5 3 3 3 2 2 2 2 3 4 3 4 5 6 6 4 4 5 5 6 4 4
5 5 4 3 2 2 2 3 3 3 3 4 5 6 6 4 6 6 5 6 5 4
6 4 4 3 2 2 3 3 3 3 3 4 5 6 6 5 5 6 5 4 6 4
5 4 4 3 1 2 2 4 4 3 3 3 4 5 6 6 6 7 7 6 6 7
5 4 3 2 2 2 3 4 3 3 3 3 3 4 6 7 7 7 7 7 7 7
5 4 3 2 3 3 3 4 4 3 3 3 4 5 5 5 7 7 5 6 7 7
5 5 3 3 3 4 3 4 4 4 4 3 3 4 6 7 7 5 4 5 6 7
5 3 3 3 3 4 4 4 4 5 4 4 3 3 5 6 6 7 6 4 6 6
4 3 4 4 4 4 4 3 4 5 4 4 3 5 9 8 5 6 5 6 6 7
5 5 5 4 4 4 4 2 4 5 4 5 3 5 6 9 5 6 5 4 5 6
5 5 4 4 5 4 3 4 3 4 4 3 2 5 5 6 4 5 5 4 4 4
6 5 5 5 5 3 3 2 3 3 3 3 3 5 6 4 4 5 6 5 5 3
6 5 5 5 4 2 2 2 3 3 2 2 2 5 6 5 3 5 5 7 6 6
5 5 5 3 2 1 2 2 1 2 2 2 2 3 6 6 3 3 5 5 6 4
Wind_Direction
176 162 149 144 183 253 264 280 295 316 329 333 340 340 336 323 318 327 314 315 316 308
185 159 168 165 184 263 289 296 329 325 339 341 345 342 338 327 319 326 315 315 323 312
187 169 159 160 201 264 295 294 328 323 346 348 346 345 344 334 319 325 321 320 324 325
188 181 166 169 182 252 286 297 308 312 330 342 346 344 339 333 322 330 324 333 335 327
186 175 157 162 232 260 284 294 297 304 308 319 339 344 342 334 331 330 327 334 339 345
196 185 166 196 252 264 277 274 304 306 285 306 341 336 329 323 326 326 330 334 341 330
196 190 180 213 250 267 271 277 293 290 283 294 310 324 327 337 331 316 336 345 344 332
194 177 188 227 253 268 275 265 276 290 297 287 284 308 321 338 337 330 338 331 352 337
166 183 209 224 240 261 276 276 279 283 297 295 269 295 348 356 335 333 316 333 340 340
187 198 220 231 240 256 264 262 279 285 286 282 314 343 344 354 342 326 319 313 336 340
193 206 215 229 239 248 245 256 279 281 284 307 312 330 344 344 338 332 325 322 320 328
200 209 206 230 240 231 231 244 259 277 310 309 313 330 339 349 341 331 323 333 327 315
206 213 214 216 244 227 232 251 280 305 341 336 336 342 8 14 342 334 329 326 323 330
204 214 198 180 219 221 258 283 323 2 8 52 21 349 4 6 339 321 315 316 323 326